Flag for U.S.A. Weather past 2 weeks in Birmingham, Alabama, U.S.A.

Now
88 °F

Partly sunny.


Feels Like: 94 °F
Forecast: 75 / 93 °F
Wind: 13 mph from Southwest

Location: Birmingham International Airport

Current Time: Jul 7, 2015 at 7:40:21 PM

Latest Report: Jul 7, 2015 at 6:53 PM


Visibility: 10 mi

Pressure: 30.08 "Hg

Humidity: 57%

Dew point: 71 °F

Location of BirminghamLocation

Historic Weather in Birmingham — Graph

°F

Birmingham temperature yesterday

Maximum temperature yesterday: 85 °F (at 3:53 PM)
Minimum temperature yesterday: 72 °F (at 1:53 AM)
Average temperature yesterday: 78 °F

Past Weeks' High & Low Weather Summary

 TemperatureHumidityPressure
High97 °F (Jun 24, 3:53 PM)100% (Jul 1, 11:53 PM)30.20 "Hg (Jul 1, 11:53 PM)
Low65 °F (Jun 29, 3:53 AM)32% (Jun 24, 4:53 PM)29.88 "Hg (Jun 27, 3:53 PM)
Average79 °F73%30.03 "Hg
* Reported Jun 22 5:53 PM — Jul 7 5:53 PM, Birmingham, Weather by CustomWeather, © 2015

Note: Actual official high and low records may vary slightly from our data, if they occured in-between our weather recording intervals... More about our weather records

Advertising

Birmingham weather history for previous 24 hours

 ConditionsComfort  
Time TempWeatherWind HumidityBarometerVisibility
5:53 PM
Tue, Jul 7
89 °FScattered clouds.13 mph53%30.07 "Hg10 mi
4:53 PM91 °FScattered clouds.13 mph47%30.09 "Hg10 mi
3:53 PM90 °FBroken clouds.8 mph50%30.10 "Hg10 mi
2:53 PM91 °FScattered clouds.8 mph50%30.11 "Hg10 mi
1:53 PM90 °FBroken clouds.13 mph50%30.12 "Hg10 mi
12:53 PM88 °FBroken clouds.10 mph57%30.14 "Hg10 mi
11:53 AM88 °FBroken clouds.7 mph57%30.14 "Hg10 mi
10:53 AM86 °FBroken clouds.12 mph63%30.16 "Hg10 mi
9:53 AM84 °FScattered clouds.12 mph72%30.15 "Hg10 mi
8:53 AM81 °FPassing clouds.9 mph79%30.16 "Hg10 mi
7:53 AM79 °FSunny.8 mph82%30.15 "Hg10 mi
6:53 AM77 °FSunny.6 mph85%30.14 "Hg10 mi
5:53 AM72 °FClear.No wind97%30.13 "Hg9 mi
4:53 AM72 °FClear.No wind93%30.12 "Hg10 mi
3:53 AM73 °FClear.3 mph94%30.11 "Hg10 mi
2:53 AM73 °FClear.No wind97%30.11 "Hg10 mi
1:53 AM74 °FClear.No wind91%30.11 "Hg10 mi
12:53 AM75 °FClear.3 mph90%30.11 "Hg10 mi
11:53 PM
Mon, Jul 6
76 °FClear.No wind88%30.12 "Hg10 mi
10:53 PM77 °FClear.3 mph85%30.12 "Hg10 mi
9:53 PM80 °FClear.7 mph74%30.10 "Hg10 mi
8:53 PM81 °FSunny.6 mph72%30.07 "Hg10 mi
7:53 PM82 °FPassing clouds.5 mph70%30.08 "Hg10 mi
Weather by CustomWeather, © 2015

See weather overviewHow to use our weather pages